Regional Weather Roundup
Issued by NWS

Home | Current Version | Previous Version | Text Only | Print | Product List | Glossary Off
Versions: 1 2 3 4 5 6 7 8 9 10 11 12 13 14 15 16 17 18 19 20 21 22 23 24 25 26 27 28 29 30 31 32 33 34 35 36 37 38 39 40 41 42 43 44 45 46 47 48 49 50

000
ASUS45 KCYS 232310
RWRWY

WYOMING REGIONAL WEATHER ROUNDUP
NATIONAL WEATHER SERVICE CHEYENNE WY
500 PM MDT FRI JUN 23 2017

NOTE:  "FAIR" INDICATES FEW OR NO CLOUDS BELOW 12,000 FEET
WITH NO SIGNIFICANT WEATHER AND/OR OBSTRUCTIONS TO VISIBILITY.

WYZ001-240000-
YELLOWSTONE NATIONAL PARK

CITY           SKY/WX    TMP DP  RH WIND       PRES   REMARKS
LK YELLOWSTONE   N/A     57  28  33 CALM      30.34S
W YELLOWSTONE  NOT AVBL

$$
WYZ002>013-054>058-071-098>099-240000-
NORTHERN WYOMING

CITY           SKY/WX    TMP DP  RH WIND       PRES   REMARKS
JACKSON        NOT AVBL
CODY           FAIR      66  30  26 VRB6      30.26S
GREYBULL       FAIR      74  26  16 N20       30.18S
WORLAND        FAIR      72  26  18 NE8       30.19F
SHERIDAN       FAIR      68  34  28 N10G24    30.24S
BUFFALO        PTSUNNY   64  33  31 N16G25    30.27S
GILLETTE       FAIR      63  30  28 N14G25    30.23R
NEWCASTLE      FAIR      64  25  22 NW20G29   30.22R

$$
WYZ014>020-022>026-101>103-240000-
CENTRAL WYOMING

CITY           SKY/WX    TMP DP  RH WIND       PRES   REMARKS
BIG PINEY      FAIR      74  26  16 NW14      30.25S
PINEDALE       FAIR      70  21  16 NW14G22   30.27S
DUBOIS         FAIR      64  32  29 SE15G23   30.26S
LANDER         FAIR      70  36  28 VRB5      30.21F
RIVERTON       FAIR      69  31  24 NE9       30.23S
CASPER         FAIR      69  30  23 VRB6      30.22F
DOUGLAS        PTSUNNY   69  31  24 VRB7G21   30.24S

$$
WYZ021-027>030-104>119-240000-
SOUTHERN WYOMING

CITY           SKY/WX    TMP DP  RH WIND       PRES   REMARKS
EVANSTON       FAIR      74  28  18 W10G18    30.28S
KEMMERER         N/A     72  27  18 NW10G24   30.28S
FORT BRIDGER   FAIR      79  25  13 NW20G31   30.29S
ROCK SPRINGS   FAIR      75  25  15 W15       30.23F
DIXON          FAIR      79  24  13 SW7G20    30.23F
RAWLINS        FAIR      73  26  17 W15G21    30.24S
SARATOGA       FAIR      73  28  19 N10G20    30.25S
LARAMIE        PTSUNNY   70  29  21 N13G22    30.25S
CHEYENNE       PTSUNNY   62  42  47 S6        30.26S
TORRINGTON     FAIR      68  27  21 N12       30.18S
PINE BLUFFS    FAIR      68  37  32 CALM      30.23F

$$



USA.gov is the U.S. government's official web portal to all federal, state and local government web resources and services.